RH
19 17 16 16 16 15 14 13 14 17 19 19 18 15 14 15 13 14 16 14 14 14 13 14 12 18 25 19 18 22 20 20 24 26 27 29 30 33 40 51 58 57 51 41 33 35 38 37 36 34 34 35 35 36 37 39 40 38 37 35 34 32 32 33 35 35 34 35 36 36 37 38 38 39 43 48 51 53 55 55 57 61 63 64 65 69
20 19 16 15 16 17 16 16 16 18 20 19 19 17 13 16 14 14 16 15 15 15 12 13 12 15 24 23 21 22 18 19 23 26 30 31 33 37 42 53 59 55 50 41 33 36 39 38 37 35 35 35 35 37 39 40 39 38 37 36 35 34 34 36 35 35 34 34 37 38 38 38 38 37 40 47 51 52 52 52 55 59 60 62 65 68
21 19 18 16 16 17 18 18 17 20 21 21 21 18 15 15 14 15 18 17 15 14 13 14 12 15 25 28 25 20 16 19 23 25 30 31 32 35 37 47 56 52 45 38 32 37 39 38 38 37 37 37 37 39 39 41 40 38 37 36 37 37 38 37 35 35 37 37 38 39 39 39 38 38 38 42 47 47 48 49 51 54 55 58 63 66
25 20 18 19 18 17 19 19 19 22 24 24 22 17 16 15 13 18 21 19 17 14 17 21 18 20 28 30 27 24 23 27 28 28 29 30 32 35 37 46 54 49 42 37 32 37 41 39 39 38 39 39 39 40 41 42 41 40 39 37 38 39 39 37 34 33 34 34 35 38 40 39 38 39 38 39 42 42 43 45 47 48 50 55 60 63
30 23 19 20 20 19 21 21 19 22 25 24 22 17 16 15 15 21 24 20 17 13 18 26 25 25 27 28 27 27 33 35 30 27 26 25 27 35 45 52 53 44 39 39 35 36 41 41 40 40 40 40 40 40 41 42 42 41 39 38 40 39 39 38 34 31 31 32 35 40 42 41 40 41 39 40 42 42 42 43 44 44 47 51 55 59
34 29 22 20 20 18 20 21 19 23 27 24 21 17 15 16 18 22 23 19 18 14 16 22 24 26 26 25 25 24 29 32 29 27 25 22 22 30 41 47 47 40 38 42 39 36 40 43 42 42 40 40 40 40 40 41 41 41 40 39 40 39 38 37 34 32 32 32 35 41 44 43 42 43 42 41 42 43 44 43 45 46 45 46 49 55
34 31 26 22 22 19 17 21 22 23 26 22 18 17 15 18 21 24 23 20 18 15 16 19 19 25 28 23 23 24 24 27 34 33 26 23 25 28 32 37 40 38 37 42 40 38 42 44 44 43 41 39 40 40 39 40 40 39 40 40 40 40 40 38 36 35 36 37 40 42 44 43 43 44 44 43 42 44 45 46 47 47 47 47 48 52
33 30 28 24 22 21 19 23 25 23 22 19 18 18 16 19 22 23 23 20 18 15 16 19 16 22 30 27 26 27 26 32 41 39 31 25 24 26 28 32 36 35 35 38 38 39 43 46 44 42 40 40 40 40 39 39 39 39 40 40 40 41 41 41 39 39 40 42 44 45 46 46 45 44 45 45 44 45 46 47 48 49 49 50 49 50
34 28 28 27 24 25 22 22 24 21 18 18 19 19 17 19 20 20 23 21 17 17 22 25 17 17 26 32 34 34 34 40 46 45 40 30 23 25 26 30 35 34 33 35 36 41 45 45 43 41 41 40 39 39 40 39 39 39 39 39 41 41 42 43 42 41 43 43 45 47 48 49 46 44 45 46 46 48 49 48 50 54 52 48 48 48
35 26 26 30 27 25 21 18 20 19 17 17 21 23 20 19 18 19 23 23 19 20 27 31 24 16 21 31 37 38 39 45 49 50 44 32 26 27 27 29 33 31 31 34 38 42 45 45 43 42 42 40 39 40 41 41 40 40 40 40 42 43 43 45 45 45 46 46 46 48 49 50 49 47 47 47 48 51 52 49 49 54 54 49 47 47
37 28 29 32 27 22 19 18 20 20 17 16 24 31 25 18 18 17 19 22 20 19 24 32 31 21 21 32 38 37 37 45 55 54 45 37 31 29 28 28 30 30 31 35 40 43 44 45 45 43 42 41 41 41 41 42 42 42 43 42 44 45 46 47 47 48 48 49 50 50 49 50 51 50 49 50 52 53 54 51 47 46 47 47 47 45
42 36 32 30 25 20 20 21 20 21 17 15 26 36 29 20 17 17 17 20 21 21 22 28 33 29 25 32 38 34 34 47 59 53 44 41 32 27 28 28 29 31 34 37 40 41 42 44 45 44 44 43 43 43 44 45 45 46 45 45 46 48 49 50 50 50 51 51 52 52 51 51 52 52 52 54 56 56 55 52 49 44 42 44 44 44
42 41 33 27 24 21 22 22 22 22 17 19 31 37 32 27 23 20 20 19 20 22 24 26 30 31 30 34 40 40 41 53 61 54 45 41 32 27 29 29 31 33 35 38 40 41 42 44 45 45 45 45 45 45 46 47 48 49 48 48 49 50 50 51 52 53 54 53 52 53 52 52 52 52 53 55 57 58 57 53 48 45 43 42 42 43
42 45 37 28 25 23 23 24 28 27 18 21 33 35 33 35 30 25 22 22 20 21 27 30 29 29 38 48 50 50 54 58 57 52 48 41 34 32 32 32 35 36 38 42 42 42 43 43 44 44 44 45 46 47 47 48 50 51 51 52 53 53 52 52 54 54 53 53 52 51 50 50 50 49 51 53 54 57 57 52 46 44 42 41 43 44
40 46 40 30 26 25 23 25 33 32 22 22 30 33 35 34 30 25 22 23 21 20 27 32 28 27 42 61 60 52 54 57 52 47 44 41 38 36 35 36 38 39 41 43 43 43 44 44 43 43 43 44 45 47 48 50 52 53 55 55 54 54 55 54 55 54 52 51 50 48 48 48 48 48 49 51 52 53 53 50 48 47 45 44 47 48
37 43 40 31 29 29 25 28 38 38 32 30 30 32 31 27 28 27 22 23 25 25 29 30 32 38 50 63 65 56 52 52 50 46 41 39 40 39 38 39 40 40 42 43 43 44 44 44 43 41 41 41 42 44 46 48 51 53 55 56 56 56 56 55 54 52 50 47 47 48 48 48 48 47 47 48 48 49 50 50 53 53 51 51 53 53
39 42 41 34 32 31 27 32 42 42 38 35 28 24 24 25 31 33 26 25 30 33 33 29 34 50 60 63 67 64 59 53 48 45 43 39 39 39 39 40 40 41 43 43 45 46 45 45 44 42 41 41 43 44 46 48 51 54 55 55 55 55 53 52 50 49 48 47 47 48 48 49 50 48 48 48 49 49 50 52 55 57 54 53 54 55
37 38 40 36 33 32 27 30 39 41 39 35 25 19 25 30 32 35 35 31 31 36 37 31 33 46 55 60 66 67 64 58 47 42 42 40 40 40 41 43 43 43 44 44 46 47 46 45 44 43 42 44 46 47 48 50 52 54 53 52 52 51 49 48 48 48 48 48 47 47 49 51 53 53 53 53 53 52 52 54 58 58 55 55 55 54
39 38 41 38 34 34 31 27 32 40 39 35 28 21 26 33 30 34 41 37 34 37 36 33 34 38 43 54 65 66 63 59 49 40 40 39 39 41 43 45 46 46 45 45 47 47 46 45 44 44 44 45 47 49 50 49 50 50 49 49 48 48 48 48 49 49 48 47 47 50 54 57 59 60 59 57 56 54 54 59 63 63 61 59 57 56
44 41 44 43 39 38 35 26 27 35 35 33 35 26 22 32 32 33 38 36 35 36 35 38 38 34 36 46 53 53 54 55 48 42 42 41 42 43 45 47 48 49 49 48 48 48 47 46 45 44 44 45 46 47 46 45 46 47 47 49 49 49 49 48 48 49 49 51 52 56 59 61 61 61 59 59 58 56 59 65 67 69 68 65 61 60
48 45 45 44 42 39 33 24 22 27 26 29 37 32 24 30 34 33 34 35 34 32 35 40 36 34 42 48 47 46 50 51 47 45 44 43 45 47 49 51 52 53 54 51 49 48 47 46 45 43 42 43 44 44 43 42 44 46 48 50 50 49 50 49 49 51 53 55 57 58 61 61 61 60 58 59 58 58 65 70 74 76 73 70 67 62
50 48 47 47 45 39 32 25 21 25 27 29 32 31 28 32 35 35 34 34 34 33 35 36 34 42 54 54 53 55 52 48 45 45 45 44 47 50 54 56 56 57 56 52 49 48 48 46 44 42 42 41 43 43 42 43 45 47 49 50 50 50 50 50 53 55 56 57 58 61 63 61 60 59 56 57 59 61 68 74 79 80 75 74 75 65
49 48 50 51 44 37 34 27 22 28 36 35 30 28 32 33 32 32 33 33 32 33 32 29 36 55 60 54 57 61 55 47 44 44 45 48 52 56 59 60 58 58 57 54 51 48 47 45 42 42 41 41 43 44 43 43 44 47 48 49 49 50 53 55 57 57 56 57 60 62 62 60 59 57 54 57 61 64 69 75 78 79 77 78 79 71
50 49 49 49 41 35 35 29 24 29 38 37 29 27 32 35 31 28 30 31 31 33 30 27 41 65 68 60 62 62 57 52 49 48 49 53 59 61 61 60 59 58 56 53 51 47 44 44 42 41 41 41 42 43 43 43 44 46 49 49 51 54 57 59 57 55 55 58 60 59 58 57 57 57 56 60 66 69 72 77 78 79 82 84 83 76
50 49 45 47 45 39 38 38 32 30 34 35 28 23 27 34 33 30 32 35 36 36 31 31 49 71 74 70 66 59 55 55 54 54 54 57 62 63 61 60 58 56 53 51 49 47 46 45 43 41 41 41 42 43 44 44 47 49 50 52 55 57 58 58 56 56 56 58 58 55 54 55 56 57 59 63 68 72 74 77 79 80 83 85 82 76
45 45 42 45 47 40 38 40 35 30 33 38 35 28 26 31 32 30 32 37 40 39 33 37 57 75 76 72 69 60 55 56 56 55 54 56 60 62 61 59 56 54 52 51 49 48 47 46 44 42 41 42 44 45 46 47 48 49 51 52 55 56 56 56 56 55 54 53 52 52 52 53 55 57 59 62 66 71 73 76 80 83 86 84 79 76
43 43 45 50 52 48 44 42 37 33 35 40 41 35 31 32 34 34 34 36 40 40 37 41 58 74 75 70 67 65 61 58 58 56 53 54 56 59 60 58 56 55 54 53 51 48 47 47 45 44 44 45 47 48 49 48 47 49 51 53 54 56 56 56 54 50 49 48 49 50 50 51 52 54 56 61 67 71 73 76 79 84 88 86 82 81
46 48 52 56 58 56 55 54 49 42 36 40 45 41 34 35 40 42 40 40 41 41 45 52 57 62 68 66 63 64 62 61 61 59 57 57 57 59 60 59 58 56 54 53 52 49 48 47 46 47 49 49 49 50 50 49 48 49 52 53 55 57 56 54 50 47 46 48 49 50 49 49 49 51 56 61 67 71 74 76 77 79 83 85 88 90
48 50 53 56 57 55 57 58 54 47 41 40 44 44 40 40 46 50 48 47 46 47 56 69 66 59 62 66 66 65 65 64 62 59 59 59 58 59 59 58 59 57 55 54 53 51 50 49 50 53 53 51 51 52 52 51 50 50 50 52 54 54 52 50 47 46 47 49 50 50 49 49 49 52 56 58 62 68 73 76 78 78 79 81 84 88
50 53 56 56 57 58 58 58 55 53 51 49 48 49 49 47 47 49 51 54 55 57 64 71 72 69 68 71 73 72 69 66 61 59 61 61 60 59 58 59 59 58 57 56 55 53 52 52 54 56 56 55 53 53 53 53 52 51 50 51 51 50 50 49 47 47 48 49 50 50 49 50 51 53 55 55 57 62 68 74 79 81 83 83 82 82
55 59 60 55 58 62 59 58 59 59 59 60 58 53 50 53 54 53 56 60 60 65 72 71 73 78 74 71 72 69 65 63 61 61 62 61 61 60 58 59 62 61 60 59 57 56 56 58 59 59 60 60 58 56 56 55 53 51 50 50 50 51 51 51 49 48 48 48 49 50 49 50 50 51 53 53 54 57 62 68 74 79 84 88 88 84
57 62 62 56 58 64 61 60 64 64 63 66 66 60 59 67 71 68 68 65 60 67 78 75 70 72 69 66 66 65 63 64 63 62 63 64 65 63 60 62 66 65 64 63 61 61 61 62 62 61 62 63 61 60 59 58 56 53 52 52 51 52 53 53 51 49 47 46 47 47 48 48 48 50 51 52 53 54 55 59 65 72 79 87 91 89
57 61 64 58 57 62 64 66 69 68 66 67 69 69 70 74 72 67 64 62 62 69 77 74 66 64 61 59 61 63 64 64 65 68 72 73 72 68 64 67 70 70 69 68 68 67 67 66 64 62 61 62 63 62 61 61 58 55 54 54 53 54 54 53 53 51 47 46 45 45 46 46 47 50 51 52 52 52 52 54 59 65 72 82 91 93
58 58 61 59 58 62 65 69 73 70 66 66 68 66 67 70 67 61 58 60 64 66 65 66 67 65 61 57 57 59 61 63 69 75 76 77 76 73 72 74 75 76 76 75 73 73 72 70 65 62 61 62 64 64 63 62 59 56 56 55 54 56 55 54 54 52 49 46 45 45 46 46 48 49 51 53 52 52 52 53 54 59 64 72 83 92
57 56 58 57 58 62 66 70 74 72 67 69 67 60 61 66 63 57 59 65 69 66 61 61 64 65 64 62 61 60 61 64 70 74 76 78 78 77 78 79 79 79 80 78 76 76 75 70 65 62 63 66 69 67 63 61 59 58 57 56 56 57 56 55 55 53 50 47 46 46 47 47 48 50 51 53 52 52 53 51 50 54 61 67 73 83
62 58 59 60 63 66 64 64 66 68 68 71 68 62 62 66 62 58 62 68 69 64 63 62 60 60 64 67 66 65 67 71 75 78 80 80 78 77 77 79 81 82 81 79 77 76 74 70 65 64 66 69 72 70 65 61 60 58 57 56 57 59 57 56 55 54 52 49 47 48 49 49 50 51 51 52 52 52 53 50 49 53 60 67 68 71
66 60 62 70 74 68 60 62 67 70 73 75 74 70 66 67 67 64 64 67 66 61 61 64 63 62 64 67 67 67 71 78 83 83 82 80 78 78 80 81 83 84 82 79 77 75 74 70 66 65 67 71 73 73 68 65 62 61 58 58 59 60 59 56 55 55 53 50 48 48 49 50 51 51 51 52 53 53 51 49 51 54 58 64 67 66
69 68 71 75 73 63 59 64 64 64 69 74 74 71 67 67 70 67 65 71 71 65 63 66 65 64 65 66 67 69 74 82 86 84 81 79 77 78 81 81 81 82 82 81 78 75 74 73 68 67 70 72 74 73 72 69 69 68 64 61 61 63 61 58 57 57 55 53 51 50 49 51 51 51 51 52 53 54 52 50 52 55 56 59 64 66
70 72 72 67 61 58 64 67 61 59 68 73 73 69 65 65 66 64 67 74 73 67 66 67 66 66 67 67 67 71 77 81 82 79 79 79 76 74 73 74 76 79 82 83 81 78 76 74 71 70 73 75 74 74 73 73 74 73 70 66 64 64 63 60 59 59 58 56 55 54 52 51 52 53 53 53 53 53 53 54 54 55 55 56 61 65
62 62 60 58 57 57 65 71 72 71 74 75 70 63 59 60 63 61 64 69 67 62 64 66 66 67 68 68 70 74 76 74 72 74 78 79 77 72 68 69 74 80 84 84 83 79 77 75 73 73 75 77 76 75 74 74 74 73 71 68 65 63 62 60 61 63 63 60 59 58 56 53 53 55 55 56 55 53 53 55 55 55 55 56 58 62
51 50 51 54 56 54 56 65 72 77 77 73 65 56 52 56 59 58 60 62 61 61 62 63 65 66 66 67 68 70 70 67 69 77 79 77 76 73 69 70 75 80 83 85 83 80 78 77 76 76 76 76 74 73 73 73 72 72 72 71 67 65 62 62 63 64 65 64 62 61 61 58 57 57 58 58 58 55 55 57 58 57 57 57 58 60
46 47 47 48 52 54 53 56 65 74 76 68 58 55 55 57 58 58 58 58 59 61 63 64 65 65 65 66 67 70 72 73 74 79 79 78 78 76 73 75 78 79 80 83 83 81 78 78 77 75 74 74 75 74 73 72 72 73 74 72 69 67 66 64 65 65 65 65 64 63 63 62 61 61 62 62 60 59 59 61 60 59 58 58 58 59
46 44 42 43 50 53 51 51 59 69 71 63 58 58 58 58 59 58 56 55 56 59 61 62 65 67 68 70 72 74 79 80 79 80 82 82 82 79 78 81 84 81 79 79 79 78 78 79 80 79 79 79 79 78 75 73 73 74 73 70 68 68 69 68 67 66 66 66 66 66 66 64 63 63 64 65 64 63 64 65 64 62 61 61 61 61
47 43 41 46 50 50 52 58 64 66 64 60 59 57 52 51 55 54 52 52 53 53 55 57 61 64 68 72 74 76 81 84 83 83 85 84 83 81 82 86 87 84 81 80 79 80 83 86 86 85 84 83 81 78 76 75 75 74 72 70 68 69 70 71 70 69 68 68 69 69 69 66 65 64 65 66 66 68 69 69 68 67 67 66 66 67
46 42 44 52 53 49 53 62 64 61 57 54 51 49 46 46 48 48 48 49 48 48 49 51 55 59 63 69 73 76 80 84 84 84 85 84 82 82 84 87 87 84 83 84 86 88 91 91 88 85 85 85 83 79 78 78 78 77 74 72 71 71 72 73 73 71 70 71 71 69 69 68 65 64 65 67 67 69 71 72 71 71 70 70 70 72
41 39 43 48 49 48 50 53 52 50 48 46 44 43 43 44 45 44 45 45 45 45 46 48 54 58 60 64 70 73 77 80 82 82 83 83 83 82 82 85 85 83 84 86 86 87 88 88 88 88 88 87 84 82 81 81 81 79 77 76 75 75 75 75 74 73 73 72 71 68 68 68 67 66 68 70 71 71 74 75 75 74 75 75 76 76
37 38 44 45 46 48 49 48 46 44 42 41 41 41 42 44 44 44 44 45 45 45 46 48 52 56 57 59 63 67 71 76 80 81 82 83 83 83 82 83 83 84 85 86 86 86 87 88 89 89 88 86 85 84 85 85 84 82 80 80 80 80 80 78 76 73 71 70 69 68 67 68 68 67 68 71 73 74 75 77 77 77 77 77 77 77
38 38 42 44 44 46 48 47 45 43 41 40 39 39 40 41 42 43 44 45 45 46 48 49 52 55 57 59 61 64 67 71 75 79 81 82 82 83 84 86 87 88 89 90 90 89 89 89 89 88 86 85 85 85 86 86 85 83 81 80 80 80 80 78 76 73 70 69 68 67 68 69 70 69 68 69 71 73 74 76 77 77 78 78 78 79
39 37 40 43 44 44 44 43 43 43 42 40 38 37 37 38 39 40 42 45 46 47 48 49 51 56 60 61 63 65 66 67 70 73 77 79 81 82 85 89 91 92 93 94 93 90 88 87 87 86 84 84 84 85 85 84 81 79 78 77 76 76 75 74 73 71 70 69 68 67 67 67 68 68 67 67 68 71 73 75 76 77 77 78 78 78
36 37 41 41 39 39 39 39 40 41 41 40 37 36 35 36 37 39 43 46 47 48 49 50 51 55 58 59 61 64 65 66 67 69 73 77 80 82 85 87 89 89 91 93 94 92 89 87 85 84 83 83 83 82 81 79 77 76 75 73 72 71 69 68 67 67 67 66 65 65 64 62 62 63 64 64 64 65 66 67 69 71 72 73 74 74
38 43 45 42 40 40 39 37 37 39 39 39 38 37 38 38 39 41 45 48 48 48 50 52 52 52 54 56 58 60 63 64 65 67 70 74 77 82 84 85 85 85 85 87 90 92 90 87 85 84 84 83 82 81 78 76 74 72 70 68 66 65 64 61 59 58 58 58 58 58 57 56 55 55 55 56 57 57 57 56 57 59 61 62 63 64